When you browse on this site, cookies collect data to enhance your experience and personalize the content and advertising you see.
Visit our Privacy Policy to learn more. By continuing to use the site, you agree to this use of cookies and data.
  • In Hungary
  • List of Countries
  • For 7 days
  • Water Temperature
  • Satellite Maps
  • Weather Map
  • News
  • Weather Widgets
  • user-avatar
    Login

    Hourly Weather Qashqadaryo

    Today, 13 December, Thursday

    Time Temperature Precipitation Wind Pressure Humidity
    00:00 +8°C° 0 mm 4 mps 745 mmHg 49%
    01:00 +9°C° 0 mm 3 mps 745 mmHg 49%
    02:00 +8°C° 0 mm 4 mps 745 mmHg 49%
    03:00 +8°C° 0 mm 4 mps 745 mmHg 48%
    04:00 +7°C° 0 mm 4 mps 744 mmHg 47%
    05:00 +7°C° 0 mm 4 mps 744 mmHg 46%
    06:00 +7°C° 0 mm 4 mps 744 mmHg 46%
    07:00 +7°C° 0 mm 4 mps 744 mmHg 45%
    08:00 +10°C° 0 mm 4 mps 744 mmHg 40%
    09:00 +10°C° 0 mm 5 mps 744 mmHg 35%
    10:00 +13°C° 0 mm 5 mps 744 mmHg 30%
    11:00 +14°C° 0 mm 5 mps 744 mmHg 26%
    12:00 +15°C° 0 mm 6 mps 744 mmHg 23%
    13:00 +17°C° 0 mm 6 mps 743 mmHg 20%
    14:00 +16°C° 0 mm 5 mps 743 mmHg 21%
    15:00 +17°C° 0 mm 4 mps 743 mmHg 22%
    16:00 +16°C° 0 mm 3 mps 743 mmHg 24%
    17:00 +14°C° 0 mm 3 mps 743 mmHg 24%
    18:00 +14°C° 0 mm 4 mps 743 mmHg 25%
    19:00 +13°C° 0 mm 4 mps 744 mmHg 26%
    20:00 +13°C° 0 mm 4 mps 744 mmHg 27%
    21:00 +12°C° 0 mm 4 mps 744 mmHg 28%
    22:00 +12°C° 0 mm 4 mps 744 mmHg 29%
    23:00 +11°C° 0 mm 4 mps 744 mmHg 30%

    Tomorrow, 14 December, Friday

    Time Temperature Precipitation Wind Pressure Humidity
    00:00 +11°C° 0 mm 4 mps 744 mmHg 30%
    01:00 +10°C° 0 mm 4 mps 743 mmHg 31%
    02:00 +10°C° 0 mm 4 mps 743 mmHg 30%
    03:00 +10°C° 0 mm 4 mps 744 mmHg 30%
    04:00 +10°C° 0 mm 4 mps 744 mmHg 29%
    05:00 +8°C° 0 mm 4 mps 744 mmHg 29%
    06:00 +8°C° 0 mm 4 mps 744 mmHg 28%
    07:00 +8°C° 0 mm 4 mps 744 mmHg 28%
    08:00 +11°C° 0 mm 4 mps 744 mmHg 25%
    09:00 +12°C° 0 mm 5 mps 745 mmHg 22%
    10:00 +14°C° 0 mm 5 mps 745 mmHg 19%
    11:00 +15°C° 0 mm 6 mps 745 mmHg 17%
    12:00 +16°C° 0 mm 6 mps 745 mmHg 15%
    13:00 +19°C° 0 mm 6 mps 745 mmHg 14%
    14:00 +17°C° 0 mm 5 mps 745 mmHg 16%
    15:00 +17°C° 0 mm 4 mps 745 mmHg 19%
    16:00 +16°C° 0 mm 3 mps 746 mmHg 21%
    17:00 +14°C° 0 mm 3 mps 746 mmHg 25%
    18:00 +13°C° 0 mm 3 mps 747 mmHg 29%
    19:00 +12°C° 0 mm 3 mps 747 mmHg 33%
    20:00 +12°C° 0 mm 2 mps 747 mmHg 37%
    21:00 +10°C° 0 mm 2 mps 747 mmHg 41%
    22:00 +9°C° 0 mm 2 mps 748 mmHg 45%
    23:00 +9°C° 0 mm 2 mps 748 mmHg 47%

    Day after tomorrow, 15 December, Saturday

    Time Temperature Precipitation Wind Pressure Humidity
    00:00 +8°C° 0 mm 2 mps 748 mmHg 50%
    01:00 +8°C° 0 mm 2 mps 748 mmHg 52%
    02:00 +8°C° 0 mm 2 mps 748 mmHg 53%
    03:00 +7°C° 0 mm 2 mps 748 mmHg 54%
    04:00 +7°C° 0 mm 2 mps 748 mmHg 55%
    05:00 +7°C° 0 mm 2 mps 748 mmHg 54%
    06:00 +7°C° 0 mm 2 mps 748 mmHg 54%
    07:00 +6°C° 0 mm 2 mps 748 mmHg 54%
    08:00 +8°C° 0 mm 2 mps 748 mmHg 49%
    09:00 +9°C° 0 mm 2 mps 748 mmHg 45%
    10:00 +10°C° 0 mm 2 mps 748 mmHg 41%
    11:00 +11°C° 0 mm 3 mps 748 mmHg 40%
    12:00 +12°C° 0 mm 3 mps 747 mmHg 38%
    13:00 +13°C° 0 mm 4 mps 747 mmHg 37%
    14:00 +12°C° 0 mm 3 mps 747 mmHg 39%
    15:00 +12°C° 0 mm 3 mps 747 mmHg 42%
    16:00 +11°C° 0 mm 3 mps 747 mmHg 44%
    17:00 +10°C° 0 mm 3 mps 748 mmHg 49%
    18:00 +10°C° 0 mm 3 mps 748 mmHg 53%
    19:00 +9°C° 0 mm 3 mps 749 mmHg 58%
    20:00 +8°C° 0 mm 3 mps 749 mmHg 62%
    21:00 +8°C° 0 mm 3 mps 749 mmHg 66%
    22:00 +7°C° 0 mm 3 mps 750 mmHg 70%
    23:00 +7°C° 0 mm 3 mps 750 mmHg 73%

    16 December, Sunday

    Time Temperature Precipitation Wind Pressure Humidity
    00:00 +5°C° 0 mm 3 mps 750 mmHg 76%
    01:00 +5°C° 0 mm 3 mps 751 mmHg 80%
    02:00 +4°C° 0 mm 3 mps 751 mmHg 81%
    03:00 +4°C° 0 mm 3 mps 751 mmHg 83%
    04:00 +4°C° 0 mm 2 mps 752 mmHg 84%
    05:00 +4°C° 0 mm 2 mps 752 mmHg 85%
    06:00 +4°C° 0 mm 2 mps 752 mmHg 85%
    07:00 +4°C° 0 mm 2 mps 752 mmHg 86%
    08:00 +5°C° 0 mm 2 mps 753 mmHg 81%
    09:00 +6°C° 0 mm 2 mps 753 mmHg 76%
    10:00 +7°C° 0 mm 2 mps 753 mmHg 71%
    11:00 +8°C° 0 mm 2 mps 752 mmHg 66%
    12:00 +8°C° 0 mm 2 mps 752 mmHg 60%
    13:00 +9°C° 0 mm 2 mps 751 mmHg 55%
    14:00 +9°C° 0 mm 3 mps 751 mmHg 54%
    15:00 +9°C° 0 mm 3 mps 751 mmHg 54%
    16:00 +9°C° 0 mm 3 mps 751 mmHg 53%
    17:00 +9°C° 0 mm 3 mps 750 mmHg 56%
    18:00 +8°C° 0 mm 3 mps 750 mmHg 58%
    19:00 +7°C° 0 mm 3 mps 750 mmHg 61%
    20:00 +7°C° 0 mm 2 mps 750 mmHg 62%
    21:00 +7°C° 0 mm 2 mps 750 mmHg 63%
    22:00 +6°C° 0 mm 2 mps 750 mmHg 64%
    23:00 +6°C° 0 mm 2 mps 750 mmHg 64%

    17 December, Monday

    Time Temperature Precipitation Wind Pressure Humidity
    00:00 +6°C° 0 mm 2 mps 749 mmHg 64%
    01:00 +6°C° 0 mm 2 mps 749 mmHg 64%
    02:00 +5°C° 0 mm 2 mps 749 mmHg 65%
    03:00 +5°C° 0 mm 2 mps 749 mmHg 65%
    04:00 +5°C° 0 mm 2 mps 749 mmHg 65%
    05:00 +5°C° 0 mm 2 mps 749 mmHg 65%
    06:00 +6°C° 0 mm 1 mps 749 mmHg 65%
    07:00 +5°C° 0 mm 1 mps 749 mmHg 65%
    08:00 +7°C° 0 mm 1 mps 749 mmHg 59%
    09:00 +8°C° 0 mm 1 mps 749 mmHg 52%
    10:00 +10°C° 0 mm 1 mps 749 mmHg 46%
    11:00 +11°C° 0 mm 1 mps 749 mmHg 42%
    12:00 +12°C° 0 mm 1 mps 748 mmHg 38%
    13:00 +13°C° 0 mm 1 mps 748 mmHg 34%
    14:00 +13°C° 0 mm 1 mps 748 mmHg 35%
    15:00 +12°C° 0 mm 1 mps 748 mmHg 36%
    16:00 +12°C° 0 mm 1 mps 748 mmHg 38%
    17:00 +11°C° 0 mm 1 mps 748 mmHg 39%
    18:00 +10°C° 0 mm 2 mps 748 mmHg 40%
    19:00 +9°C° 0 mm 2 mps 748 mmHg 42%
    20:00 +9°C° 0 mm 2 mps 747 mmHg 42%
    21:00 +9°C° 0 mm 2 mps 747 mmHg 42%
    22:00 +8°C° 0 mm 2 mps 747 mmHg 43%
    23:00 +8°C° 0 mm 2 mps 747 mmHg 43%

    18 December, Tuesday

    Time Temperature Precipitation Wind Pressure Humidity
    00:00 +8°C° 0 mm 2 mps 747 mmHg 42%
    01:00 +8°C° 0 mm 2 mps 746 mmHg 42%
    02:00 +8°C° 0 mm 2 mps 746 mmHg 41%
    03:00 +8°C° 0 mm 3 mps 746 mmHg 41%
    04:00 +8°C° 0 mm 3 mps 745 mmHg 40%
    05:00 +8°C° 0 mm 3 mps 745 mmHg 39%
    06:00 +8°C° 0 mm 3 mps 745 mmHg 39%
    07:00 +8°C° 0 mm 3 mps 745 mmHg 38%
    08:00 +9°C° 0 mm 3 mps 745 mmHg 36%
    09:00 +10°C° 0 mm 3 mps 745 mmHg 33%
    10:00 +11°C° 0 mm 3 mps 745 mmHg 30%
    11:00 +12°C° 0 mm 3 mps 744 mmHg 29%
    12:00 +13°C° 0 mm 3 mps 743 mmHg 27%
    13:00 +14°C° 0 mm 3 mps 742 mmHg 26%
    14:00 +14°C° 0 mm 3 mps 742 mmHg 27%
    15:00 +13°C° 0 mm 3 mps 742 mmHg 29%
    16:00 +13°C° 0 mm 3 mps 741 mmHg 31%
    17:00 +12°C° 0 mm 3 mps 741 mmHg 33%
    18:00 +12°C° 0 mm 3 mps 741 mmHg 34%
    19:00 +12°C° 0 mm 3 mps 741 mmHg 35%
    20:00 +11°C° 0 mm 3 mps 741 mmHg 36%
    21:00 +11°C° 0 mm 3 mps 741 mmHg 36%
    22:00 +11°C° 0 mm 3 mps 741 mmHg 37%
    23:00 +11°C° 0 mm 3 mps 741 mmHg 37%
    Show more